Flag for Germany Weather past 2 weeks in Velbert, North Rhine-Westphalia, Germany

Now
72 °F

Overcast.


Feels Like: 77 °F
Forecast: 49 / 58 °F
Wind: 9 mph from Southwest

Location: Essen

Current Time: May 5, 2015 at 2:23:10 PM

Latest Report: May 5, 2015 at 2:00 PM


Visibility: 28 mi

Pressure: 29.47 "Hg

Humidity: 54%

Dew point: 54 °F

Location of VelbertLocation

Historic Weather in Velbert — Graph

°F

Velbert temperature yesterday

Maximum temperature yesterday: 67 °F (at 6:00 PM)
Minimum temperature yesterday: 54 °F (at 7:00 AM)
Average temperature yesterday: 60 °F

Past Weeks' High & Low Weather Summary

 TemperatureHumidityPressure
High72 °F (May 5, 1:00 PM)100% (Apr 26, 3:00 AM)30.46 "Hg (Apr 26, 3:00 AM)
Low36 °F (Apr 28, 7:00 AM)27% (Apr 21, 5:00 PM)29.41 "Hg (May 5, 4:00 AM)
Average52 °F72%29.93 "Hg
* Reported Apr 20 1:00 PM — May 5 1:00 PM, Velbert, Weather by CustomWeather, © 2015

Note: Actual official high and low records may vary slightly from our data, if they occured in-between our weather recording intervals... More about our weather records

Advertising

Velbert weather history for previous 24 hours

 ConditionsComfort  
Time TempWeatherWind HumidityBarometerVisibility
1:00 PM
Tue, May 5
72 °FPassing clouds.9 mph61%29.44 "Hg10 mi
12:00 PM68 °FPassing clouds.9 mph76%29.44 "Hg9 mi
11:00 AM64 °FOvercast.8 mph82%29.47 "Hg22 mi
10:00 AM63 °FLow clouds.5 mph87%29.44 "Hg28 mi
9:00 AM62 °FLow clouds.7 mph90%29.44 "Hg25 mi
8:00 AM65 °FOvercast.7 mph75%29.44 "Hg28 mi
7:00 AM65 °FPartly sunny.8 mph75%29.44 "Hg40 mi
6:00 AM65 °FPartly sunny.8 mph74%29.41 "Hg37 mi
5:00 AM65 °FPassing clouds.8 mph76%29.41 "Hg43 mi
4:00 AM64 °FPassing clouds.9 mph77%29.41 "Hg37 mi
3:00 AM62 °FLow clouds.6 mph86%29.44 "Hg43 mi
2:00 AM62 °FLight rain. Low clouds.9 mph85%29.47 "Hg22 mi
1:00 AM59 °FLight rain. Overcast.7 mph91%29.50 "Hg19 mi
12:00 AM60 °FLight rain. Low clouds.6 mph80%29.59 "Hg31 mi
11:00 PM
Mon, May 4
61 °FLight rain. Overcast.3 mph72%29.63 "Hg31 mi
10:00 PM63 °FOvercast.3 mph66%29.65 "Hg43 mi
9:00 PM63 °FOvercast.3 mph68%29.67 "Hg43 mi
8:00 PM65 °FOvercast.2 mph61%29.70 "Hg43 mi
7:00 PM65 °FPartly sunny.3 mph65%29.71 "Hg43 mi
6:00 PM67 °FPartly sunny.2 mph59%29.75 "Hg37 mi
5:00 PM65 °FPartly sunny.2 mph58%29.76 "Hg37 mi
4:00 PM64 °FPartly sunny.2 mph63%29.78 "Hg40 mi
3:00 PM63 °FPartly sunny.5 mph62%29.80 "Hg40 mi
2:00 PM62 °FPartly sunny.6 mph61%29.80 "Hg34 mi
Weather by CustomWeather, © 2015

See weather overviewHow to use our weather pages